Regional Weather Roundup
Issued by NWS

Home | Current Version | Previous Version | Text Only | Print | Product List | Glossary On
Versions: 1 2 3 4 5 6 7 8 9 10 11 12 13 14 15 16 17 18 19 20 21 22 23 24 25 26 27 28 29 30 31 32 33 34 35 36 37 38 39 40 41 42 43 44 45 46 47 48 49 50
000
ASUS44 KLIX 300810
RWRLA
LOUISIANA WEATHER ROUNDUP
NATIONAL WEATHER SERVICE NEW ORLEANS LA
300 AM CDT SUN AUG 30 2015

NOTE: "FAIR" INDICATES FEW OR NO CLOUDS BELOW 12,000 FEET WITH NO
      SIGNIFICANT WEATHER AND/OR OBSTRUCTIONS TO VISIBILITY.
      SKY/WX - SKY CONDITION AND SIGNIFICANT WEATHER.
      TMP - AIR TEMPERATURE.    DP   - DEWPOINT TEMPERATURE.
      RH  - RELATIVE HUMIDITY.  PRES - PRESSURE.
      HX  - HEAT INDEX.         WCI  - WIND CHILL INDEX.

*  THESE STATIONS ARE NOT NWS OR FAA STATIONS AND ARE NOT UNDER
   NWS QUALITY CONTROL.

LAZ040-048-061>063-065-066-069-300900-
SOUTHEAST LOUISIANA

CITY           SKY/WX    TMP DP  RH WIND       PRES   REMARKS
N.O. AUDUBON   NOT AVBL
N.O. INTL ARPT PTCLDY    76  67  73 S3        30.00F
N.O. LAKEFRONT MOCLDY    78  68  71 CALM      30.01S
N.O. DOWNTOWN* FAIR      81  68  65 CALM      30.01S
RESERVE*       FAIR      74  69  86 CALM      30.00F
SLIDELL        PTCLDY    70  69  97 CALM      30.00F
BATON ROUGE    CLEAR     72  68  87 CALM      30.00F
BOOTHVILLE     MOCLDY    79  71  76 CALM      30.00F
BELLE CHASSE   PTCLDY    70  68  93 CALM      30.00F FOG
BOGALUSA*      NOT AVBL
GALLIANO*      SUNNY     69  67  93 CALM      30.00F
NEW ROADS*     FAIR      69  67  94 CALM      30.01S
GONZALES*      FAIR      70  70 100 CALM      29.99F
HAMMOND*       CLEAR     72  66  83 CALM      30.02S
HOUMA*         CLEAR     69  67  96 CALM      30.00F
PORT FOURCHON* SUNNY     81  68  65 CALM      30.01F

$$

LAZ041-044-053-054-300900-
SOUTHWEST LOUISIANA

CITY           SKY/WX    TMP DP  RH WIND       PRES   REMARKS
LAKE CHARLES   CLEAR     71  68  90 CALM      29.99F
LAFAYETTE      CLEAR     72  69  90 CALM      30.00F
PATTERSON      CLEAR     70  66  88 CALM      30.02S
SALT POINT       N/A     75  72  90 CALM      29.98F
NEW IBERIA     CLEAR     71  68  90 CALM      30.01S
CHENAULT AIRPK CLEAR     71  68  92 CALM      30.00S

$$

LAZ027-028-300900-
CENTRAL LOUISIANA

CITY           SKY/WX    TMP DP  RH WIND       PRES   REMARKS
FORT POLK      MOCLDY    75  66  74 W5        29.98F
ALEXANDRIA INT PTCLDY    72  66  81 CALM      29.98S
ALEXANDRIA     PTCLDY    70  66  87 CALM      30.00S

$$

LAZ001-002-300900-
NORTHWEST LOUISIANA

CITY           SKY/WX    TMP DP  RH WIND       PRES   REMARKS
SHREVEPORT     MOCLDY    73  67  81 SW5       29.97F
BARKSDALE AFB  PTCLDY    73  67  80 CALM      29.97F
DTN SHREVEPORT PTCLDY    78  65  63 W5        29.97F

$$

LAZ014-016-300900-
NORTHEAST LOUISIANA

CITY           SKY/WX    TMP DP  RH WIND       PRES   REMARKS
MONROE         MOCLDY    73  66  78 CALM      29.98F
TALLULAH       PTCLDY    68  65  90 CALM      29.99F

$$



USA.gov is the U.S. government's official web portal to all federal, state and local government web resources and services.